Regional Weather Roundup
Issued by NWS

Home | Current Version | Previous Version | Text Only | Print | Product List | Glossary On
Versions: 1 2 3 4 5 6 7 8 9 10 11 12 13 14 15 16 17 18 19 20 21 22 23 24 25 26 27 28 29 30 31 32 33 34 35 36 37 38 39 40 41 42 43 44 45 46 47 48 49 50
000
ASUS43 KMPX 251310
RWRMN
WEATHER ROUNDUP FOR MINNESOTA
NATIONAL WEATHER SERVICE TWIN CITIES/CHANHASSEN MN
800 AM CDT THU AUG 25 2016


NOTE: "FAIR" INDICATES FEW OR NO CLOUDS BELOW 12,000 FEET WITH NO
SIGNIFICANT WEATHER AND/OR OBSTRUCTIONS TO VISIBILITY. N/A MEANS
CURRENT SKY AND/OR WEATHER CONDITIONS ARE NOT AVAILABLE.

MNZ060>063-068>070-251400-
   Twin Cities Metro

CITY           SKY/WX    TMP DP  RH WIND       PRES   REMARKS
TWIN CITIES    MOSUNNY   64  57  78 W9        30.01F
ST PAUL        SUNNY     64  58  80 CALM      30.01F
CRYSTAL        SUNNY     64  56  75 W9        30.00S
BLAINE         SUNNY     64  63  94 W3        30.01S
LAKEVILLE      SUNNY     63  57  82 W3        30.02S
EDEN PRAIRIE   SUNNY     62  58  86 W7        30.01S
LAKEVILLE      SUNNY     63  57  82 W3        30.02S
SOUTH ST PAUL  SUNNY     64  57  78 SW6       30.01S
LAKE ELMO      FAIR      63  61  94 SW3       30.02S
$$
MNZ001>005-007-008-013>017-022>024-027-028-251400-
   Northwest Minnesota

CITY           SKY/WX    TMP DP  RH WIND       PRES   REMARKS
BEMIDJI        CLOUDY    56  53  89 SW9       29.95R
HALLOCK        CLOUDY    57  55  94 NW17G24   29.90R
ROSEAU         CLOUDY    57  54  88 SW8       29.87R HAZE
WARROAD        CLOUDY    57  54  88 SW6       29.87R
THIEF RVR FALL CLOUDY    58  55  90 SW13      29.93R
CROOKSTON      CLOUDY    59  54  82 W13       29.95R
FOSSTON        CLOUDY    54  52  94 SW10      29.96S
DETROIT LAKES  PTSUNNY   55  52  88 W13       30.01S
MOORHEAD       CLOUDY    57  52  82 W10       30.01S
PARK RAPIDS    CLOUDY    57  53  86 W9        29.98R
MAHNOMEN       CLOUDY    55  52  90 W13       29.97S
$$
MNZ006-009>011-018-025>026-251400-
   North Central Minnesota

CITY           SKY/WX    TMP DP  RH WIND       PRES   REMARKS
BAUDETTE       CLOUDY    56  53  90 W10       29.86F
FLAG ISLAND    CLOUDY    55  55 100 SW6       29.83S FOG
INTL FALLS       N/A     56  53  90 W8        29.88S
WASKISH        CLOUDY    59  55  88 W16G22    29.90S
BIG FORK       MOSUNNY   57  54  88 SW10      29.92S
LONGVILLE      CLOUDY    57  54  88 W8        29.96S
GRAND RAPIDS   SUNNY     59  53  80 VRB7      29.96S
CRANE LAKE     SUNNY     55  52  88 SW5       29.91R
ORR            SUNNY     55  50  82 CALM      29.89S
COOK           SUNNY     57  54  88 SW7       29.92R
WALKER         PTSUNNY   56  52  87 W12       29.96S
$$
MNZ012-019>021-037-251400-
   Northeast Minnesota

CITY           SKY/WX    TMP DP  RH WIND       PRES   REMARKS
DULUTH         SUNNY     61  55  81 W12       29.95S
ELY            SUNNY     57  54  88 SW5       29.91F
HIBBING        SUNNY     53  52  96 SW6       29.93F
EVELETH        SUNNY     58  55  90 SW7       29.94F
DULUTH HARBOR  SUNNY     61  57  88 SW12      29.95S
TWO HARBORS    SUNNY     63  57  82 W5        29.92S
SILVER BAY     SUNNY     59  55  88 CALM      29.91S
GRAND MARAIS     N/A     64  51  62 SW3       29.88S
G MARAIS ARPRT SUNNY     57  50  77 CALM      29.93S
$$
MNZ029>031-032-039>041-046>048-054>057-064-251400-
   West Central Minnesota

CITY           SKY/WX    TMP DP  RH WIND       PRES   REMARKS
FERGUS FALLS   PTSUNNY   54  54 100 W10       30.06R
WHEATON        SUNNY     57  54  88 W8        30.08R
MORRIS         SUNNY     57  54  88 W10       30.05S
ALEXANDRIA     SUNNY     57  51  80 W12       30.05R
ELBOW LAKE     FAIR      53  51  95 W10       30.04F
WADENA         SUNNY     54  52  94 W9        30.00
GLENWOOD       SUNNY     55  52  88 W12G20    30.04S
APPLETON       SUNNY     57  52  82 W8        30.07R
BENSON         MOSUNNY   57  52  82 NW8       30.06S
ORTONVILLE     SUNNY     55  50  82 CALM      30.08R
MADISON        SUNNY     55  54  94 W5        30.08S
WILLMAR        FAIR      57  54  88 W7        30.07S
$$
MNZ033>034-036-042>043-049>051-058-059-251400-
   Central Minnesota

CITY           SKY/WX    TMP DP  RH WIND       PRES   REMARKS
ST CLOUD       SUNNY     60  55  83 W10       30.01S
SAUK CENTRE    FAIR      55  52  90 W9        30.03S
PAYNESVILLE    SUNNY     56  56 100 W7        30.04S
AITKIN         SUNNY     63  54  72 SW6       29.96F
PINE RIVER     MOSUNNY   55  52  88 W6        30.01S
BRAINERD       SUNNY     58  53  84 W14       29.99S
STAPLES        MOSUNNY   55  52  88 W9        30.00F
LONG PRAIRIE   FAIR      55  50  82 SW10G17   30.03R
LITTLE FALLS   SUNNY     57  52  82 W6        30.01S
LITCHFIELD     SUNNY     61  55  82 W7        30.04F
BUFFALO        SUNNY     61  56  85 W8        30.03S
MAPLE LAKE     SUNNY     61  57  87 W7        30.03F
HUTCHINSON     CLOUDY    59  58  95 W7        30.05S
$$
MNZ037-044-045-052-053-251400-
   East Central Minnesota

CITY           SKY/WX    TMP DP  RH WIND       PRES   REMARKS
PRINCETON      SUNNY     61  57  88 SW5       30.01S
MORA           SUNNY     57  54  88 W7        30.01S
CAMBRIDGE      SUNNY     63  55  77 W6        29.98F
RUSH CITY      SUNNY     61  58  90 W5        30.00S
MOOSE LAKE     SUNNY     55  54  94 CALM      29.96S
HINCKLEY       FAIR      59  57  94 W7        29.99S
CLOQUET        SUNNY     61  52  72 W8        29.96S
MCGREGOR       SUNNY     59  54  82 W5        29.97F
$$
MNZ071>073-080-081-089-090-097-098-251400-
   Southwest Minnesota

CITY           SKY/WX    TMP DP  RH WIND       PRES   REMARKS
MONTEVIDEO     SUNNY     57  55  94 NW7       30.09R
GRANITE FALLS  MOSUNNY   58  55  90 W7        30.09S
CANBY          CLOUDY    58  52  80 NW10      30.10S
MARSHALL       MOSUNNY   58  52  80 NW8       30.09R
REDWOOD FALLS  MOSUNNY   58  54  86 NW8       30.06S
OLIVIA         SUNNY     55  54  94 W7        30.06R
PIPESTONE      CLOUDY    57  52  82 NW7       30.11S
WINDOM         MOSUNNY   59  55  88 W6        30.08F
WORTHINGTON    MOSUNNY   60  54  80 NW10      30.10S
JACKSON        MOSUNNY   61  55  82 W5        30.09S
TRACY          PTSUNNY   60  53  78 NW6       30.10S
SLAYTON        CLOUDY    57  54  88 NW7       30.11S
$$
MNZ065>067-074>077-082>085-091>093-251400-
   South Central Minnesota

CITY           SKY/WX    TMP DP  RH WIND       PRES   REMARKS
MANKATO        SUNNY     61  55  82 W8        30.05S
NEW ULM          N/A     61  57  88 W8        30.06S
ST JAMES       MOSUNNY   57  52  82 W8        30.07S
FAIRMONT       SUNNY     62  58  86 CALM      30.07F
GLENCOE        SUNNY     61  59  94 W5        30.03S
FARIBAULT      SUNNY     63  61  94 S5        30.04F
OWATONNA       SUNNY     61  57  88 CALM      30.05F
WASECA         SUNNY     59  57  94 S3        30.06F
ALBERT LEA     SUNNY     64  59  82 CALM      30.07S
$$
MNZ078>079-086>088-094>096-251400-
   Southeast Minnesota

CITY           SKY/WX    TMP DP  RH WIND       PRES   REMARKS
ROCHESTER      SUNNY     64  61  90 W6        30.06F
RED WING       SUNNY     63  61  94 CALM      30.02S
STANTON        SUNNY     61  59  94 SW5       30.02S
DODGE CENTER   SUNNY     63  59  88 W6        30.06S
WINONA         MOSUNNY   63  61  94 CALM      30.03F
AUSTIN         SUNNY     63  57  82 W3        30.06S
PRESTON        MOSUNNY   61  58  89 NW7       30.07S
$$
ABBREVIATIONS USED IN REMARKS
   TC - TEMPERATURES IN CELSIUS
  WCI - WIND CHILL INDEX
   HX - HEAT INDEX
  VSB - VISIBILITY
$$




USA.gov is the U.S. government's official web portal to all federal, state and local government web resources and services.